Regional Weather Roundup
Issued by NWS Goodland, KS

Home | Current Version | Previous Version | Graphics & Text | Print | Product List | Glossary On
Versions: 1 2 3 4 5 6 7 8 9 10 11 12 13 14 15 16 17 18 19 20 21 22 23 24 25 26 27 28 29 30 31 32 33 34 35 36 37 38 39 40 41 42 43 44 45 46 47 48 49 50
000
ASUS43 KGLD 280259
RWRGLD

GOODLAND FORECAST AREA HOURLY WEATHER ROUNDUP
NATIONAL WEATHER SERVICE GOODLAND KS
900 PM MDT SUN MAY 27 2018

...OFFICIAL OBSERVATIONS...

CITY           SKY/WX    TMP DP  RH WIND       PRES   REMARKS
GOODLAND KS    CLOUDY    80  61  52 SE23G40   29.82R THUNDER HAZE
HILL CITY KS   CLOUDY    80  59  48 SE9       29.85R
IMPERIAL NEB   TSTM      64  59  83 E6        29.97F
MCCOOK NEB     CLOUDY    73  58  59 N23G38    29.87R
AKRON CO       CLOUDY    60  54  80 NE22G31   29.91R
BURLINGTON CO  CLOUDY    76  62  62 SE24G35   29.84R
LIMON CO       CLEAR     73  46  38 SE28G38   29.84R
$$

...UNOFFICIAL OBSERVATIONS...

CITY           SKY/WX    TMP DP  RH WIND       PRES   REMARKS
NORTON KS      CLEAR     81  55  41 SE13G18   29.85
SHARON SPRINGS   N/A     77  64  63 MISG        N/A
KIT CARSON CO    N/A     78  46  32 MISG        N/A
YUMA CO        TSTM      59  45  58 E23G31    29.91R
$$



USA.gov is the U.S. government's official web portal to all federal, state and local government web resources and services.